Погода в Дюпсе

Россия / Республика Саха (Якутия)     63°01′20″N   130°43′11″E
темп.,
°C
ветер,
м/с
пор.,
м/с
влажн.,
%
обл.,
%
осадки,
мм/ч
давл.,
гПа
погр.,
м
27 ноября, сб
сб2700:00−26в38975 0.0 1021145
03:00−25в410955 0.0 1019193
06:00−24в41195100 0.0 1017249
09:00−21в51294100 0.0 1014306
12:00−19вюв3793100 0.0 1012271
15:00−19вюв119993 0.9 101323
18:00−22юз2110085 0.1 101620
21:00−18ююз1598100 0.3 1017154
28 ноября, вс
вс2800:00−16зсз31094100 0.5 1018618
03:00−20з2797100 0.6 1020298
06:00−21зюз399783 0.1 1021310
09:00−24зюз269999 0.1 1022145
12:00−19з31196100 0.1 1021686
15:00−18з4994100 0.3 1021629
18:00−20з4996100 0.1 1022440
21:00−22з3997100 0.2 1022404
29 ноября, пн
пн2900:00−23зюз2699100 0.1 1022146
03:00−24зсз13100100 0.1 102267
06:00−25ссз1599100 0.1 1022167
09:00−26с1210099 0.1 102263
12:00−24ссз1396100 0.1 1022131
15:00−25ссв129995 0.1 102275
18:00−27всв1110094 0.1 102211
21:00−26ссв119997 0.1 102239
30 ноября, вт
вт3000:00−27ссв129982 0.1 102265
03:00−28св129890 0.1 102255
06:00−28св129891 0.1 102274
09:00−28всв129786 0.1 1022100
12:00−26всв229591 0.1 1022155
15:00−27всв2397100 0.1 1022148
18:00−26всв2497100 0.1 1022152
21:00−26всв2497100 0.1 1022161
1 декабря, ср
ср100:00−26всв2597100 0.1 1022173
03:00−26всв2697100 0.2 1022202
06:00−26всв3797100 0.1 1021216
09:00−25всв3896100 0.2 1021261
12:00−24всв3895100 0.1 1020295
15:00−24всв4995100 0.1 1019324
18:00−23всв499593 0.1 1020329
21:00−24всв389690 0.1 1020278